owner,sensor,date,latitude,longitude,vertical_datum,mass_concentration_of_oxygen_in_sea_water,qcFlag 
DISL,ioos:station:DISL:DISL:1,2009-07-01T00:00:00Z,30.2513,-88.0778,6.219,6.73,1111122 
DISL,ioos:station:DISL:DISL:1,2009-07-01T00:30:00Z,30.2513,-88.0778,6.208,6.69,1111122 
DISL,ioos:station:DISL:DISL:1,2009-07-01T01:00:00Z,30.2513,-88.0778,6.251,7.02,1111122 
DISL,ioos:station:DISL:DISL:1,2009-07-01T01:30:00Z,30.2513,-88.0778,6.282,6.86,1111122 
DISL,ioos:station:DISL:DISL:1,2009-07-01T02:00:00Z,30.2513,-88.0778,6.29,7.4,1111122 
DISL,ioos:station:DISL:DISL:1,2009-07-01T02:30:00Z,30.2513,-88.0778,6.358,7.34,1111122 
DISL,ioos:station:DISL:DISL:1,2009-07-01T03:00:00Z,30.2513,-88.0778,6.461,6.67,1111122 
DISL,ioos:station:DISL:DISL:1,2009-07-01T03:30:00Z,30.2513,-88.0778,6.507,4.43,1111122 
DISL,ioos:station:DISL:DISL:1,2009-07-01T04:00:00Z,30.2513,-88.0778,6.539,3.68,1111122 
DISL,ioos:station:DISL:DISL:1,2009-07-01T04:30:00Z,30.2513,-88.0778,6.592,2.48,1111122 
DISL,ioos:station:DISL:DISL:1,2009-07-01T05:00:00Z,30.2513,-88.0778,6.666,2.23,1111122 
DISL,ioos:station:DISL:DISL:1,2009-07-01T05:30:00Z,30.2513,-88.0778,6.779,2.04,1111122 
DISL,ioos:station:DISL:DISL:1,2009-07-01T06:00:00Z,30.2513,-88.0778,6.794,3.12,1111122 
DISL,ioos:station:DISL:DISL:1,2009-07-01T06:30:00Z,30.2513,-88.0778,6.884,3.2,1111122 
DISL,ioos:station:DISL:DISL:1,2009-07-01T07:00:00Z,30.2513,-88.0778,6.955,3.28,1111122 
DISL,ioos:station:DISL:DISL:1,2009-07-01T07:30:00Z,30.2513,-88.0778,7.05,2.69,1111122 
DISL,ioos:station:DISL:DISL:1,2009-07-01T08:00:00Z,30.2513,-88.0778,7.1,2.83,1111122 
DISL,ioos:station:DISL:DISL:1,2009-07-01T08:30:00Z,30.2513,-88.0778,7.25,3.22,1111122 
DISL,ioos:station:DISL:DISL:1,2009-07-01T09:00:00Z,30.2513,-88.0778,7.24,3.27,1111122 
DISL,ioos:station:DISL:DISL:1,2009-07-01T09:30:00Z,30.2513,-88.0778,7.26,2.54,1111122 
DISL,ioos:station:DISL:DISL:1,2009-07-01T10:00:00Z,30.2513,-88.0778,7.33,3.78,1111122 
DISL,ioos:station:DISL:DISL:1,2009-07-01T10:30:00Z,30.2513,-88.0778,7.34,4.48,1111122 
DISL,ioos:station:DISL:DISL:1,2009-07-01T11:00:00Z,30.2513,-88.0778,7.37,4.5,1111122 
DISL,ioos:station:DISL:DISL:1,2009-07-01T11:30:00Z,30.2513,-88.0778,7.37,4.9,1111122 
DISL,ioos:station:DISL:DISL:1,2009-07-01T12:00:00Z,30.2513,-88.0778,7.38,5.58,1111122 
DISL,ioos:station:DISL:DISL:1,2009-07-01T12:30:00Z,30.2513,-88.0778,7.36,5.13,1111122 
DISL,ioos:station:DISL:DISL:1,2009-07-01T13:00:00Z,30.2513,-88.0778,7.24,5.76,1111122 
DISL,ioos:station:DISL:DISL:1,2009-07-01T13:30:00Z,30.2513,-88.0778,7.33,5.96,1111122 
DISL,ioos:station:DISL:DISL:1,2009-07-01T14:00:00Z,30.2513,-88.0778,7.14,5.81,1111122 
DISL,ioos:station:DISL:DISL:1,2009-07-01T14:30:00Z,30.2513,-88.0778,7.11,5.78,1111122 
DISL,ioos:station:DISL:DISL:1,2009-07-01T15:00:00Z,30.2513,-88.0778,6.976,5.58,1111122 
DISL,ioos:station:DISL:DISL:1,2009-07-01T15:30:00Z,30.2513,-88.0778,6.874,5.45,1111122 
DISL,ioos:station:DISL:DISL:1,2009-07-01T16:00:00Z,30.2513,-88.0778,6.812,5.9,1111122 
DISL,ioos:station:DISL:DISL:1,2009-07-01T16:30:00Z,30.2513,-88.0778,6.388,4.63,1111122 
DISL,ioos:station:DISL:DISL:1,2009-07-01T17:00:00Z,30.2513,-88.0778,6.569,6.28,1111122 
DISL,ioos:station:DISL:DISL:1,2009-07-01T17:30:00Z,30.2513,-88.0778,6.628,5.64,1111122 
DISL,ioos:station:DISL:DISL:1,2009-07-01T18:00:00Z,30.2513,-88.0778,6.548,6.86,1111122 
DISL,ioos:station:DISL:DISL:1,2009-07-01T18:30:00Z,30.2513,-88.0778,6.416,6.71,1111122 
DISL,ioos:station:DISL:DISL:1,2009-07-01T19:00:00Z,30.2513,-88.0778,6.313,7.26,1111122 
DISL,ioos:station:DISL:DISL:1,2009-07-01T19:30:00Z,30.2513,-88.0778,6.278,7.47,1111122 
DISL,ioos:station:DISL:DISL:1,2009-07-01T20:00:00Z,30.2513,-88.0778,6.148,7.86,1111122 
DISL,ioos:station:DISL:DISL:1,2009-07-01T20:30:00Z,30.2513,-88.0778,6.061,8.28,1111122 
DISL,ioos:station:DISL:DISL:1,2009-07-01T21:00:00Z,30.2513,-88.0778,5.978,8.69,1111122 
DISL,ioos:station:DISL:DISL:1,2009-07-01T21:30:00Z,30.2513,-88.0778,5.948,8.67,1111122 
DISL,ioos:station:DISL:DISL:1,2009-07-01T22:00:00Z,30.2513,-88.0778,5.935,8.53,1111122 
DISL,ioos:station:DISL:DISL:1,2009-07-01T22:30:00Z,30.2513,-88.0778,5.939,8.15,1111122 
DISL,ioos:station:DISL:DISL:1,2009-07-01T23:00:00Z,30.2513,-88.0778,5.997,7.83,1111122 
DISL,ioos:station:DISL:DISL:1,2009-07-01T23:30:00Z,30.2513,-88.0778,5.98,6.87,1111122 
DISL,ioos:station:DISL:DISL:1,2009-07-02T00:00:00Z,30.2513,-88.0778,6.015,5.57,1111122 
DISL,ioos:station:DISL:DISL:1,2009-07-02T00:30:00Z,30.2513,-88.0778,6.018,5.56,1111122 
DISL,ioos:station:DISL:DISL:1,2009-07-02T01:00:00Z,30.2513,-88.0778,6.078,6.22,1111122 
DISL,ioos:station:DISL:DISL:1,2009-07-02T01:30:00Z,30.2513,-88.0778,6.183,6.62,1111122 
DISL,ioos:station:DISL:DISL:1,2009-07-02T02:00:00Z,30.2513,-88.0778,6.202,6.96,1111122 
DISL,ioos:station:DISL:DISL:1,2009-07-02T02:30:00Z,30.2513,-88.0778,6.266,6.68,1111122 
DISL,ioos:station:DISL:DISL:1,2009-07-02T03:00:00Z,30.2513,-88.0778,6.304,6.86,1111122 
DISL,ioos:station:DISL:DISL:1,2009-07-02T03:30:00Z,30.2513,-88.0778,6.407,5.19,1111122 
DISL,ioos:station:DISL:DISL:1,2009-07-02T04:00:00Z,30.2513,-88.0778,6.455,5.94,1111122 
DISL,ioos:station:DISL:DISL:1,2009-07-02T04:30:00Z,30.2513,-88.0778,6.558,5.95,1111122 
DISL,ioos:station:DISL:DISL:1,2009-07-02T05:00:00Z,30.2513,-88.0778,6.638,5.57,1111122 
DISL,ioos:station:DISL:DISL:1,2009-07-02T05:30:00Z,30.2513,-88.0778,6.694,5.61,1111122 
DISL,ioos:station:DISL:DISL:1,2009-07-02T06:00:00Z,30.2513,-88.0778,6.787,5.62,1111122 
DISL,ioos:station:DISL:DISL:1,2009-07-02T06:30:00Z,30.2513,-88.0778,6.88,5.5,1111122 
DISL,ioos:station:DISL:DISL:1,2009-07-02T07:00:00Z,30.2513,-88.0778,6.952,5.46,1111122 
DISL,ioos:station:DISL:DISL:1,2009-07-02T07:30:00Z,30.2513,-88.0778,7.07,5.3,1111122 
DISL,ioos:station:DISL:DISL:1,2009-07-02T08:00:00Z,30.2513,-88.0778,7.17,4.34,1111122 
DISL,ioos:station:DISL:DISL:1,2009-07-02T08:30:00Z,30.2513,-88.0778,7.19,4.26,1111122 
DISL,ioos:station:DISL:DISL:1,2009-07-02T09:00:00Z,30.2513,-88.0778,7.28,4.76,1111122 
DISL,ioos:station:DISL:DISL:1,2009-07-02T09:30:00Z,30.2513,-88.0778,7.35,3.57,1111122 
DISL,ioos:station:DISL:DISL:1,2009-07-02T10:00:00Z,30.2513,-88.0778,7.45,4.03,1111122 
DISL,ioos:station:DISL:DISL:1,2009-07-02T10:30:00Z,30.2513,-88.0778,7.41,4.76,1111122 
DISL,ioos:station:DISL:DISL:1,2009-07-02T11:00:00Z,30.2513,-88.0778,7.5,4.03,1111122 
DISL,ioos:station:DISL:DISL:1,2009-07-02T11:30:00Z,30.2513,-88.0778,7.42,4.23,1111122 
DISL,ioos:station:DISL:DISL:1,2009-07-02T12:00:00Z,30.2513,-88.0778,7.45,3.83,1111122 
DISL,ioos:station:DISL:DISL:1,2009-07-02T12:30:00Z,30.2513,-88.0778,7.48,4.88,1111122 
DISL,ioos:station:DISL:DISL:1,2009-07-02T13:00:00Z,30.2513,-88.0778,7.49,3.12,1111122 
DISL,ioos:station:DISL:DISL:1,2009-07-02T13:30:00Z,30.2513,-88.0778,7.43,2.35,1111122 
DISL,ioos:station:DISL:DISL:1,2009-07-02T14:00:00Z,30.2513,-88.0778,7.41,3.33,1111122 
DISL,ioos:station:DISL:DISL:1,2009-07-02T14:30:00Z,30.2513,-88.0778,7.31,4.42,1111122 
DISL,ioos:station:DISL:DISL:1,2009-07-02T15:00:00Z,30.2513,-88.0778,7.25,4.76,1111122 
DISL,ioos:station:DISL:DISL:1,2009-07-02T15:30:00Z,30.2513,-88.0778,7.13,3.01,1111122 
DISL,ioos:station:DISL:DISL:1,2009-07-02T16:00:00Z,30.2513,-88.0778,7.04,2.95,1111122 
DISL,ioos:station:DISL:DISL:1,2009-07-02T16:30:00Z,30.2513,-88.0778,6.917,3.38,1111122 
DISL,ioos:station:DISL:DISL:1,2009-07-02T17:00:00Z,30.2513,-88.0778,6.801,4.48,1111122 
DISL,ioos:station:DISL:DISL:1,2009-07-02T17:30:00Z,30.2513,-88.0778,6.696,4.45,1111122 
DISL,ioos:station:DISL:DISL:1,2009-07-02T18:00:00Z,30.2513,-88.0778,6.573,5.65,1111122 
DISL,ioos:station:DISL:DISL:1,2009-07-02T18:30:00Z,30.2513,-88.0778,6.461,6.34,1111122 
DISL,ioos:station:DISL:DISL:1,2009-07-02T19:00:00Z,30.2513,-88.0778,6.368,6.4,1111122 
DISL,ioos:station:DISL:DISL:1,2009-07-02T19:30:00Z,30.2513,-88.0778,6.226,6.93,1111122 
DISL,ioos:station:DISL:DISL:1,2009-07-02T20:00:00Z,30.2513,-88.0778,6.122,7.31,1111122 
DISL,ioos:station:DISL:DISL:1,2009-07-02T20:30:00Z,30.2513,-88.0778,6.019,7.69,1111122 
DISL,ioos:station:DISL:DISL:1,2009-07-02T21:00:00Z,30.2513,-88.0778,5.949,7.64,1111122 
DISL,ioos:station:DISL:DISL:1,2009-07-02T21:30:00Z,30.2513,-88.0778,5.867,6.54,1111122 
DISL,ioos:station:DISL:DISL:1,2009-07-02T22:00:00Z,30.2513,-88.0778,5.824,6.95,1111122 
DISL,ioos:station:DISL:DISL:1,2009-07-02T22:30:00Z,30.2513,-88.0778,5.85,7.0,1111122 
DISL,ioos:station:DISL:DISL:1,2009-07-02T23:00:00Z,30.2513,-88.0778,5.834,5.93,1111122 
DISL,ioos:station:DISL:DISL:1,2009-07-02T23:30:00Z,30.2513,-88.0778,5.922,6.62,1111122 
DISL,ioos:station:DISL:DISL:1,2009-07-03T00:00:00Z,30.2513,-88.0778,5.871,6.32,1111122 
DISL,ioos:station:DISL:DISL:1,2009-07-03T00:30:00Z,30.2513,-88.0778,5.952,6.73,1111122 
DISL,ioos:station:DISL:DISL:1,2009-07-03T01:00:00Z,30.2513,-88.0778,5.974,5.74,1111122 
DISL,ioos:station:DISL:DISL:1,2009-07-03T01:30:00Z,30.2513,-88.0778,5.959,5.91,1111122 
DISL,ioos:station:DISL:DISL:1,2009-07-03T02:00:00Z,30.2513,-88.0778,6.014,5.57,1111122 
DISL,ioos:station:DISL:DISL:1,2009-07-03T02:30:00Z,30.2513,-88.0778,6.15,4.19,1111122 
DISL,ioos:station:DISL:DISL:1,2009-07-03T03:00:00Z,30.2513,-88.0778,6.028,4.49,1111122 
DISL,ioos:station:DISL:DISL:1,2009-07-03T03:30:00Z,30.2513,-88.0778,6.127,5.22,1111122 
DISL,ioos:station:DISL:DISL:1,2009-07-03T04:00:00Z,30.2513,-88.0778,6.214,3.89,1111122 
DISL,ioos:station:DISL:DISL:1,2009-07-03T04:30:00Z,30.2513,-88.0778,6.201,3.45,1111122 
DISL,ioos:station:DISL:DISL:1,2009-07-03T05:00:00Z,30.2513,-88.0778,6.167,5.39,1111122 
DISL,ioos:station:DISL:DISL:1,2009-07-03T05:30:00Z,30.2513,-88.0778,6.341,3.67,1111122 
DISL,ioos:station:DISL:DISL:1,2009-07-03T06:00:00Z,30.2513,-88.0778,6.428,3.85,1111122 
DISL,ioos:station:DISL:DISL:1,2009-07-03T06:30:00Z,30.2513,-88.0778,6.505,3.62,1111122 
DISL,ioos:station:DISL:DISL:1,2009-07-03T07:00:00Z,30.2513,-88.0778,6.559,3.59,1111122 
DISL,ioos:station:DISL:DISL:1,2009-07-03T07:30:00Z,30.2513,-88.0778,6.53,4.4,1111122 
DISL,ioos:station:DISL:DISL:1,2009-07-03T08:00:00Z,30.2513,-88.0778,6.66,4.99,1111122 
DISL,ioos:station:DISL:DISL:1,2009-07-03T08:30:00Z,30.2513,-88.0778,6.765,4.78,1111122 
DISL,ioos:station:DISL:DISL:1,2009-07-03T09:00:00Z,30.2513,-88.0778,6.824,4.42,1111122 
DISL,ioos:station:DISL:DISL:1,2009-07-03T09:30:00Z,30.2513,-88.0778,6.892,4.53,1111122 
DISL,ioos:station:DISL:DISL:1,2009-07-03T10:00:00Z,30.2513,-88.0778,6.992,4.57,1111122 
DISL,ioos:station:DISL:DISL:1,2009-07-03T10:30:00Z,30.2513,-88.0778,7.05,4.36,1111122 
DISL,ioos:station:DISL:DISL:1,2009-07-03T11:00:00Z,30.2513,-88.0778,7.17,4.15,1111122 
DISL,ioos:station:DISL:DISL:1,2009-07-03T11:30:00Z,30.2513,-88.0778,7.24,4.31,1111122 
DISL,ioos:station:DISL:DISL:1,2009-07-03T12:00:00Z,30.2513,-88.0778,7.25,4.22,1111122 
DISL,ioos:station:DISL:DISL:1,2009-07-03T12:30:00Z,30.2513,-88.0778,7.24,4.2,1111122 
DISL,ioos:station:DISL:DISL:1,2009-07-03T13:00:00Z,30.2513,-88.0778,7.2,3.97,1111122 
DISL,ioos:station:DISL:DISL:1,2009-07-03T13:30:00Z,30.2513,-88.0778,7.24,3.36,1111122 
DISL,ioos:station:DISL:DISL:1,2009-07-03T14:00:00Z,30.2513,-88.0778,7.24,2.98,1111122 
DISL,ioos:station:DISL:DISL:1,2009-07-03T14:30:00Z,30.2513,-88.0778,7.19,4.18,1111122 
DISL,ioos:station:DISL:DISL:1,2009-07-03T15:00:00Z,30.2513,-88.0778,7.16,3.28,1111122 
DISL,ioos:station:DISL:DISL:1,2009-07-03T15:30:00Z,30.2513,-88.0778,7.06,3.69,1111122 
DISL,ioos:station:DISL:DISL:1,2009-07-03T16:00:00Z,30.2513,-88.0778,6.938,4.47,1111122 
DISL,ioos:station:DISL:DISL:1,2009-07-03T16:30:00Z,30.2513,-88.0778,6.837,5.12,1111122 
DISL,ioos:station:DISL:DISL:1,2009-07-03T17:00:00Z,30.2513,-88.0778,6.769,4.68,1111122 
DISL,ioos:station:DISL:DISL:1,2009-07-03T17:30:00Z,30.2513,-88.0778,6.662,4.57,1111122 
DISL,ioos:station:DISL:DISL:1,2009-07-03T18:00:00Z,30.2513,-88.0778,6.544,7.15,1111122 
DISL,ioos:station:DISL:DISL:1,2009-07-03T18:30:00Z,30.2513,-88.0778,6.4,7.23,1111122 
DISL,ioos:station:DISL:DISL:1,2009-07-03T19:00:00Z,30.2513,-88.0778,6.325,7.43,1111122 
DISL,ioos:station:DISL:DISL:1,2009-07-03T19:30:00Z,30.2513,-88.0778,6.266,7.13,1111122 
DISL,ioos:station:DISL:DISL:1,2009-07-03T20:00:00Z,30.2513,-88.0778,6.204,7.34,1111122 
DISL,ioos:station:DISL:DISL:1,2009-07-03T20:30:00Z,30.2513,-88.0778,6.082,7.2,1111122 
DISL,ioos:station:DISL:DISL:1,2009-07-03T21:00:00Z,30.2513,-88.0778,5.945,7.6,1111122 
DISL,ioos:station:DISL:DISL:1,2009-07-03T21:30:00Z,30.2513,-88.0778,5.846,7.28,1111122 
DISL,ioos:station:DISL:DISL:1,2009-07-03T22:00:00Z,30.2513,-88.0778,5.669,7.0,1111122 
DISL,ioos:station:DISL:DISL:1,2009-07-03T22:30:00Z,30.2513,-88.0778,5.711,7.76,1111122 
DISL,ioos:station:DISL:DISL:1,2009-07-03T23:00:00Z,30.2513,-88.0778,5.643,7.61,1111122 
DISL,ioos:station:DISL:DISL:1,2009-07-03T23:30:00Z,30.2513,-88.0778,5.61,7.06,1111122 
DISL,ioos:station:DISL:DISL:1,2009-07-04T00:00:00Z,30.2513,-88.0778,5.632,7.43,1111122 
DISL,ioos:station:DISL:DISL:1,2009-07-04T00:30:00Z,30.2513,-88.0778,5.531,7.59,1111122 
DISL,ioos:station:DISL:DISL:1,2009-07-04T01:00:00Z,30.2513,-88.0778,5.565,7.42,1111122 
DISL,ioos:station:DISL:DISL:1,2009-07-04T01:30:00Z,30.2513,-88.0778,5.584,6.87,1111122 
DISL,ioos:station:DISL:DISL:1,2009-07-04T02:00:00Z,30.2513,-88.0778,5.693,7.21,1111122 
DISL,ioos:station:DISL:DISL:1,2009-07-04T02:30:00Z,30.2513,-88.0778,5.718,7.3,1111122 
DISL,ioos:station:DISL:DISL:1,2009-07-04T03:00:00Z,30.2513,-88.0778,5.736,6.4,1111122 
DISL,ioos:station:DISL:DISL:1,2009-07-04T03:30:00Z,30.2513,-88.0778,5.806,4.52,1111122 
DISL,ioos:station:DISL:DISL:1,2009-07-04T04:00:00Z,30.2513,-88.0778,5.829,3.46,1111122 
DISL,ioos:station:DISL:DISL:1,2009-07-04T04:30:00Z,30.2513,-88.0778,6.001,3.66,1111122 
DISL,ioos:station:DISL:DISL:1,2009-07-04T05:00:00Z,30.2513,-88.0778,6.0,3.27,1111122 
DISL,ioos:station:DISL:DISL:1,2009-07-04T05:30:00Z,30.2513,-88.0778,6.108,4.31,1111122 
DISL,ioos:station:DISL:DISL:1,2009-07-04T06:00:00Z,30.2513,-88.0778,6.198,4.98,1111122 
DISL,ioos:station:DISL:DISL:1,2009-07-04T06:30:00Z,30.2513,-88.0778,6.266,5.36,1111122 
DISL,ioos:station:DISL:DISL:1,2009-07-04T07:00:00Z,30.2513,-88.0778,6.341,4.64,1111122 
DISL,ioos:station:DISL:DISL:1,2009-07-04T07:30:00Z,30.2513,-88.0778,6.454,4.56,1111122 
DISL,ioos:station:DISL:DISL:1,2009-07-04T08:00:00Z,30.2513,-88.0778,6.628,5.02,1111122 
DISL,ioos:station:DISL:DISL:1,2009-07-04T08:30:00Z,30.2513,-88.0778,6.686,5.37,1111122 
DISL,ioos:station:DISL:DISL:1,2009-07-04T09:00:00Z,30.2513,-88.0778,6.802,5.32,1111122 
DISL,ioos:station:DISL:DISL:1,2009-07-04T09:30:00Z,30.2513,-88.0778,6.886,4.94,1111122 
DISL,ioos:station:DISL:DISL:1,2009-07-04T10:00:00Z,30.2513,-88.0778,6.941,5.46,1111122 
DISL,ioos:station:DISL:DISL:1,2009-07-04T10:30:00Z,30.2513,-88.0778,7.03,5.32,1111122 
DISL,ioos:station:DISL:DISL:1,2009-07-04T11:00:00Z,30.2513,-88.0778,7.11,5.13,1111122 
DISL,ioos:station:DISL:DISL:1,2009-07-04T11:30:00Z,30.2513,-88.0778,7.16,4.66,1111122 
DISL,ioos:station:DISL:DISL:1,2009-07-04T12:00:00Z,30.2513,-88.0778,7.22,4.97,1111122 
DISL,ioos:station:DISL:DISL:1,2009-07-04T12:30:00Z,30.2513,-88.0778,7.24,3.83,1111122 
DISL,ioos:station:DISL:DISL:1,2009-07-04T13:00:00Z,30.2513,-88.0778,7.33,3.92,1111122 
DISL,ioos:station:DISL:DISL:1,2009-07-04T13:30:00Z,30.2513,-88.0778,7.32,3.8,1111122 
DISL,ioos:station:DISL:DISL:1,2009-07-04T14:00:00Z,30.2513,-88.0778,7.39,4.34,1111122 
DISL,ioos:station:DISL:DISL:1,2009-07-04T14:30:00Z,30.2513,-88.0778,7.38,4.02,1111122 
DISL,ioos:station:DISL:DISL:1,2009-07-04T15:00:00Z,30.2513,-88.0778,7.37,4.95,1111122 
DISL,ioos:station:DISL:DISL:1,2009-07-04T15:30:00Z,30.2513,-88.0778,7.28,5.4,1111122 
DISL,ioos:station:DISL:DISL:1,2009-07-04T16:00:00Z,30.2513,-88.0778,7.21,5.61,1111122 
DISL,ioos:station:DISL:DISL:1,2009-07-04T16:30:00Z,30.2513,-88.0778,7.08,5.51,1111122 
DISL,ioos:station:DISL:DISL:1,2009-07-04T17:00:00Z,30.2513,-88.0778,7.04,6.05,1111122 
DISL,ioos:station:DISL:DISL:1,2009-07-04T17:30:00Z,30.2513,-88.0778,6.887,5.36,1111122 
DISL,ioos:station:DISL:DISL:1,2009-07-04T18:00:00Z,30.2513,-88.0778,6.738,7.26,1111122 
DISL,ioos:station:DISL:DISL:1,2009-07-04T18:30:00Z,30.2513,-88.0778,6.651,8.33,1111122 
DISL,ioos:station:DISL:DISL:1,2009-07-04T19:00:00Z,30.2513,-88.0778,6.53,8.6,1111122 
DISL,ioos:station:DISL:DISL:1,2009-07-04T19:30:00Z,30.2513,-88.0778,6.385,7.89,1111122 
DISL,ioos:station:DISL:DISL:1,2009-07-04T20:00:00Z,30.2513,-88.0778,6.251,7.26,1111122 
DISL,ioos:station:DISL:DISL:1,2009-07-04T20:30:00Z,30.2513,-88.0778,6.154,8.06,1111122 
DISL,ioos:station:DISL:DISL:1,2009-07-04T21:00:00Z,30.2513,-88.0778,6.114,8.91,1111122 
DISL,ioos:station:DISL:DISL:1,2009-07-04T21:30:00Z,30.2513,-88.0778,6.13,8.69,1111122 
DISL,ioos:station:DISL:DISL:1,2009-07-04T22:00:00Z,30.2513,-88.0778,5.943,8.31,1111122 
DISL,ioos:station:DISL:DISL:1,2009-07-04T22:30:00Z,30.2513,-88.0778,5.833,7.84,1111122 
DISL,ioos:station:DISL:DISL:1,2009-07-04T23:00:00Z,30.2513,-88.0778,5.844,7.21,1111122 
DISL,ioos:station:DISL:DISL:1,2009-07-04T23:30:00Z,30.2513,-88.0778,5.699,7.64,1111122 
DISL,ioos:station:DISL:DISL:1,2009-07-05T00:00:00Z,30.2513,-88.0778,5.699,7.34,1111122 
DISL,ioos:station:DISL:DISL:1,2009-07-05T00:30:00Z,30.2513,-88.0778,5.612,7.31,1111122 
DISL,ioos:station:DISL:DISL:1,2009-07-05T01:00:00Z,30.2513,-88.0778,5.59,6.49,1111122 
DISL,ioos:station:DISL:DISL:1,2009-07-05T01:30:00Z,30.2513,-88.0778,5.595,6.55,1111122 
DISL,ioos:station:DISL:DISL:1,2009-07-05T02:00:00Z,30.2513,-88.0778,5.667,6.75,1111122 
DISL,ioos:station:DISL:DISL:1,2009-07-05T02:30:00Z,30.2513,-88.0778,5.807,6.12,1111122 
DISL,ioos:station:DISL:DISL:1,2009-07-05T03:00:00Z,30.2513,-88.0778,5.728,5.89,1111122 
DISL,ioos:station:DISL:DISL:1,2009-07-05T03:30:00Z,30.2513,-88.0778,5.733,6.01,1111122 
DISL,ioos:station:DISL:DISL:1,2009-07-05T04:00:00Z,30.2513,-88.0778,5.769,5.11,1111122 
DISL,ioos:station:DISL:DISL:1,2009-07-05T04:30:00Z,30.2513,-88.0778,5.864,6.03,1111122 
DISL,ioos:station:DISL:DISL:1,2009-07-05T05:00:00Z,30.2513,-88.0778,5.845,6.28,1111122 
DISL,ioos:station:DISL:DISL:1,2009-07-05T05:30:00Z,30.2513,-88.0778,5.909,5.18,1111122 
DISL,ioos:station:DISL:DISL:1,2009-07-05T06:00:00Z,30.2513,-88.0778,6.002,4.28,1111122 
DISL,ioos:station:DISL:DISL:1,2009-07-05T06:30:00Z,30.2513,-88.0778,6.091,4.59,1111122 
DISL,ioos:station:DISL:DISL:1,2009-07-05T07:00:00Z,30.2513,-88.0778,6.159,4.51,1111122 
DISL,ioos:station:DISL:DISL:1,2009-07-05T07:30:00Z,30.2513,-88.0778,6.244,4.34,1111122 
DISL,ioos:station:DISL:DISL:1,2009-07-05T08:00:00Z,30.2513,-88.0778,6.316,4.34,1111122 
DISL,ioos:station:DISL:DISL:1,2009-07-05T08:30:00Z,30.2513,-88.0778,6.403,4.38,1111122 
DISL,ioos:station:DISL:DISL:1,2009-07-05T09:00:00Z,30.2513,-88.0778,6.494,3.91,1111122 
DISL,ioos:station:DISL:DISL:1,2009-07-05T09:30:00Z,30.2513,-88.0778,6.628,3.51,1111122 
DISL,ioos:station:DISL:DISL:1,2009-07-05T10:00:00Z,30.2513,-88.0778,6.73,3.8,1111122 
DISL,ioos:station:DISL:DISL:1,2009-07-05T10:30:00Z,30.2513,-88.0778,6.874,3.29,1111122 
DISL,ioos:station:DISL:DISL:1,2009-07-05T11:00:00Z,30.2513,-88.0778,7.05,3.51,1111122 
DISL,ioos:station:DISL:DISL:1,2009-07-05T11:30:00Z,30.2513,-88.0778,7.14,3.95,1111122 
DISL,ioos:station:DISL:DISL:1,2009-07-05T12:00:00Z,30.2513,-88.0778,7.22,4.51,1111122 
DISL,ioos:station:DISL:DISL:1,2009-07-05T12:30:00Z,30.2513,-88.0778,7.32,4.77,1111122 
DISL,ioos:station:DISL:DISL:1,2009-07-05T13:00:00Z,30.2513,-88.0778,7.43,4.02,1111122 
DISL,ioos:station:DISL:DISL:1,2009-07-05T13:30:00Z,30.2513,-88.0778,7.42,4.75,1111122 
DISL,ioos:station:DISL:DISL:1,2009-07-05T14:00:00Z,30.2513,-88.0778,7.44,5.1,1111122 
DISL,ioos:station:DISL:DISL:1,2009-07-05T14:30:00Z,30.2513,-88.0778,7.41,5.14,1111122 
DISL,ioos:station:DISL:DISL:1,2009-07-05T15:00:00Z,30.2513,-88.0778,7.42,5.23,1111122 
DISL,ioos:station:DISL:DISL:1,2009-07-05T15:30:00Z,30.2513,-88.0778,7.41,5.21,1111122 
DISL,ioos:station:DISL:DISL:1,2009-07-05T16:00:00Z,30.2513,-88.0778,7.37,5.43,1111122 
DISL,ioos:station:DISL:DISL:1,2009-07-05T16:30:00Z,30.2513,-88.0778,7.3,5.79,1111122 
DISL,ioos:station:DISL:DISL:1,2009-07-05T17:00:00Z,30.2513,-88.0778,7.16,5.97,1111122 
DISL,ioos:station:DISL:DISL:1,2009-07-05T17:30:00Z,30.2513,-88.0778,7.06,6.13,1111122 
DISL,ioos:station:DISL:DISL:1,2009-07-05T18:00:00Z,30.2513,-88.0778,7.01,5.84,1111122 
DISL,ioos:station:DISL:DISL:1,2009-07-05T18:30:00Z,30.2513,-88.0778,6.902,6.32,1111122 
DISL,ioos:station:DISL:DISL:1,2009-07-05T19:00:00Z,30.2513,-88.0778,6.767,6.52,1111122 
DISL,ioos:station:DISL:DISL:1,2009-07-05T19:30:00Z,30.2513,-88.0778,6.687,6.07,1111122 
DISL,ioos:station:DISL:DISL:1,2009-07-05T20:00:00Z,30.2513,-88.0778,6.599,4.82,1111122 
DISL,ioos:station:DISL:DISL:1,2009-07-05T20:30:00Z,30.2513,-88.0778,6.499,5.51,1111122 
DISL,ioos:station:DISL:DISL:1,2009-07-05T21:00:00Z,30.2513,-88.0778,6.361,5.81,1111122 
DISL,ioos:station:DISL:DISL:1,2009-07-05T21:30:00Z,30.2513,-88.0778,6.27,5.84,1111122 
DISL,ioos:station:DISL:DISL:1,2009-07-05T22:00:00Z,30.2513,-88.0778,6.197,6.13,1111122 
DISL,ioos:station:DISL:DISL:1,2009-07-05T22:30:00Z,30.2513,-88.0778,6.089,6.58,1111122 
DISL,ioos:station:DISL:DISL:1,2009-07-05T23:00:00Z,30.2513,-88.0778,6.05,6.15,1111122 
DISL,ioos:station:DISL:DISL:1,2009-07-05T23:30:00Z,30.2513,-88.0778,5.972,5.9,1111122 
DISL,ioos:station:DISL:DISL:1,2009-07-06T00:00:00Z,30.2513,-88.0778,5.878,6.05,1111122 
DISL,ioos:station:DISL:DISL:1,2009-07-06T00:30:00Z,30.2513,-88.0778,5.837,5.81,1111122 
DISL,ioos:station:DISL:DISL:1,2009-07-06T01:00:00Z,30.2513,-88.0778,5.851,5.86,1111122 
DISL,ioos:station:DISL:DISL:1,2009-07-06T01:30:00Z,30.2513,-88.0778,5.8,6.29,1111122 
DISL,ioos:station:DISL:DISL:1,2009-07-06T02:00:00Z,30.2513,-88.0778,5.786,5.52,1111122 
DISL,ioos:station:DISL:DISL:1,2009-07-06T02:30:00Z,30.2513,-88.0778,5.772,5.47,1111122 
DISL,ioos:station:DISL:DISL:1,2009-07-06T03:00:00Z,30.2513,-88.0778,5.773,4.89,1111122 
DISL,ioos:station:DISL:DISL:1,2009-07-06T03:30:00Z,30.2513,-88.0778,5.742,4.57,1111122 
DISL,ioos:station:DISL:DISL:1,2009-07-06T04:00:00Z,30.2513,-88.0778,5.768,5.27,1111122 
DISL,ioos:station:DISL:DISL:1,2009-07-06T04:30:00Z,30.2513,-88.0778,5.776,4.57,1111122 
DISL,ioos:station:DISL:DISL:1,2009-07-06T05:00:00Z,30.2513,-88.0778,5.861,4.29,1111122 
DISL,ioos:station:DISL:DISL:1,2009-07-06T05:30:00Z,30.2513,-88.0778,5.915,4.14,1111122 
DISL,ioos:station:DISL:DISL:1,2009-07-06T06:00:00Z,30.2513,-88.0778,5.948,4.72,1111122 
DISL,ioos:station:DISL:DISL:1,2009-07-06T06:30:00Z,30.2513,-88.0778,6.03,4.77,1111122 
DISL,ioos:station:DISL:DISL:1,2009-07-06T07:00:00Z,30.2513,-88.0778,6.083,5.0,1111122 
DISL,ioos:station:DISL:DISL:1,2009-07-06T07:30:00Z,30.2513,-88.0778,6.191,5.12,1111122 
DISL,ioos:station:DISL:DISL:1,2009-07-06T08:00:00Z,30.2513,-88.0778,6.265,5.14,1111122 
DISL,ioos:station:DISL:DISL:1,2009-07-06T08:30:00Z,30.2513,-88.0778,6.387,5.08,1111122 
DISL,ioos:station:DISL:DISL:1,2009-07-06T09:00:00Z,30.2513,-88.0778,6.475,5.18,1111122 
DISL,ioos:station:DISL:DISL:1,2009-07-06T09:30:00Z,30.2513,-88.0778,6.57,5.08,1111122 
DISL,ioos:station:DISL:DISL:1,2009-07-06T10:00:00Z,30.2513,-88.0778,6.696,4.74,1111122 
DISL,ioos:station:DISL:DISL:1,2009-07-06T10:30:00Z,30.2513,-88.0778,6.794,4.88,1111122 
DISL,ioos:station:DISL:DISL:1,2009-07-06T11:00:00Z,30.2513,-88.0778,6.827,4.85,1111122 
DISL,ioos:station:DISL:DISL:1,2009-07-06T11:30:00Z,30.2513,-88.0778,6.958,4.48,1111122 
DISL,ioos:station:DISL:DISL:1,2009-07-06T12:00:00Z,30.2513,-88.0778,7.06,4.51,1111122 
DISL,ioos:station:DISL:DISL:1,2009-07-06T12:30:00Z,30.2513,-88.0778,7.13,4.36,1111122 
DISL,ioos:station:DISL:DISL:1,2009-07-06T13:00:00Z,30.2513,-88.0778,7.24,4.91,1111122 
DISL,ioos:station:DISL:DISL:1,2009-07-06T13:30:00Z,30.2513,-88.0778,7.25,4.95,1111122 
DISL,ioos:station:DISL:DISL:1,2009-07-06T14:00:00Z,30.2513,-88.0778,7.27,4.86,1111122 
DISL,ioos:station:DISL:DISL:1,2009-07-06T14:30:00Z,30.2513,-88.0778,7.34,4.84,1111122 
DISL,ioos:station:DISL:DISL:1,2009-07-06T15:00:00Z,30.2513,-88.0778,7.34,4.65,1111122 
DISL,ioos:station:DISL:DISL:1,2009-07-06T15:30:00Z,30.2513,-88.0778,7.25,4.76,1111122 
DISL,ioos:station:DISL:DISL:1,2009-07-06T16:00:00Z,30.2513,-88.0778,7.21,5.25,1111122 